Wetterdaten: Woche 29.08.16 - 04.09.16 (KW35)
Datum Zeit Temperatur Luftfeuchte Luftdruck Niederschlag Windrichtung Sonnenschein Solar Wind
29.08.2016 00:00 19,5 C 87 % 1014,6 hPa 0,0 l/m S-SW 0,00 h 0 W/m 3,1 km/h (1 Bft)
29.08.2016 01:00 20,0 C 86 % 1014,6 hPa 0,0 l/m S 0,00 h 0 W/m 3,9 km/h (1 Bft)
29.08.2016 02:00 19,1 C 91 % 1014,5 hPa 0,0 l/m S 0,00 h 0 W/m 1,1 km/h (0 Bft)
29.08.2016 03:00 18,3 C 91 % 1014,5 hPa 0,0 l/m S 0,00 h 0 W/m 0,9 km/h (0 Bft)
29.08.2016 04:00 17,5 C 94 % 1014,8 hPa 0,0 l/m N 0,00 h 0 W/m 0,0 km/h (0 Bft)
29.08.2016 05:00 17,3 C 94 % 1014,6 hPa 0,0 l/m N 0,00 h 0 W/m 0,0 km/h (0 Bft)
29.08.2016 06:00 17,2 C 95 % 1015,0 hPa 0,0 l/m S 0,00 h 5 W/m 1,1 km/h (0 Bft)
29.08.2016 07:00 17,5 C 96 % 1015,3 hPa 0,0 l/m N 0,00 h 11 W/m 0,4 km/h (0 Bft)
29.08.2016 08:00 17,9 C 95 % 1015,5 hPa 0,0 l/m N 0,00 h 32 W/m 0,8 km/h (0 Bft)
29.08.2016 09:00 18,7 C 91 % 1015,9 hPa 0,0 l/m S-SW 0,00 h 80 W/m 1,6 km/h (1 Bft)
29.08.2016 10:00 19,1 C 90 % 1016,4 hPa 0,0 l/m S-SW 0,00 h 133 W/m 5,1 km/h (1 Bft)
29.08.2016 11:00 19,6 C 89 % 1016,8 hPa 0,0 l/m SW 0,17 h 268 W/m 14,8 km/h (3 Bft)
29.08.2016 12:00 20,1 C 85 % 1016,9 hPa 0,0 l/m S-SW 0,00 h 166 W/m 14,6 km/h (3 Bft)
29.08.2016 13:00 19,9 C 86 % 1016,7 hPa 0,0 l/m S-SW 0,00 h 181 W/m 16,6 km/h (3 Bft)
29.08.2016 14:00 19,7 C 87 % 1016,9 hPa 0,0 l/m SW 0,00 h 123 W/m 18,5 km/h (3 Bft)
29.08.2016 15:00 18,1 C 92 % 1017,2 hPa 4,6 l/m W-SW 0,00 h 44 W/m 6,8 km/h (2 Bft)
29.08.2016 16:00 17,8 C 96 % 1016,7 hPa 0,8 l/m W-SW 0,00 h 104 W/m 1,5 km/h (1 Bft)
29.08.2016 17:00 19,0 C 95 % 1016,6 hPa 0,0 l/m SW 0,17 h 155 W/m 8,0 km/h (2 Bft)
29.08.2016 18:00 19,0 C 94 % 1016,7 hPa 0,0 l/m SW 0,08 h 87 W/m 3,6 km/h (1 Bft)
29.08.2016 19:00 18,8 C 94 % 1016,9 hPa 0,0 l/m SW 0,00 h 18 W/m 4,5 km/h (1 Bft)
29.08.2016 20:00 18,2 C 95 % 1017,7 hPa 0,0 l/m SW 0,00 h 0 W/m 0,8 km/h (0 Bft)
29.08.2016 21:00 17,8 C 97 % 1018,6 hPa 0,4 l/m N 0,00 h 0 W/m 0,4 km/h (0 Bft)
29.08.2016 22:00 17,3 C 98 % 1018,9 hPa 0,0 l/m SW 0,00 h 0 W/m 0,8 km/h (0 Bft)
29.08.2016 23:00 16,6 C 98 % 1019,2 hPa 0,0 l/m N 0,00 h 0 W/m 0,0 km/h (0 Bft)
30.08.2016 00:00 16,4 C 99 % 1019,6 hPa 0,0 l/m SW 0,00 h 0 W/m 0,4 km/h (0 Bft)
30.08.2016 01:00 15,8 C 99 % 1019,7 hPa 0,0 l/m SW 0,00 h 0 W/m 0,5 km/h (0 Bft)
30.08.2016 02:00 15,3 C 99 % 1019,4 hPa 0,0 l/m SW 0,00 h 0 W/m 0,0 km/h (0 Bft)
30.08.2016 03:00 14,8 C 99 % 1019,4 hPa 0,0 l/m SW 0,00 h 0 W/m 3,9 km/h (1 Bft)
30.08.2016 04:00 14,4 C 99 % 1019,6 hPa 0,0 l/m SW 0,00 h 0 W/m 1,3 km/h (1 Bft)
30.08.2016 05:00 14,0 C 98 % 1019,4 hPa 0,0 l/m SW 0,00 h 0 W/m 3,3 km/h (1 Bft)
30.08.2016 06:00 13,9 C 98 % 1019,6 hPa 0,0 l/m W 0,00 h 9 W/m 4,1 km/h (1 Bft)
30.08.2016 07:00 14,5 C 95 % 1020,2 hPa 0,0 l/m N-NO 0,08 h 67 W/m 9,3 km/h (2 Bft)
30.08.2016 08:00 15,5 C 92 % 1020,7 hPa 0,0 l/m N-NO 0,92 h 216 W/m 12,4 km/h (3 Bft)
30.08.2016 09:00 16,9 C 87 % 1020,8 hPa 0,0 l/m NO 1,00 h 376 W/m 14,2 km/h (3 Bft)
30.08.2016 10:00 18,5 C 82 % 1020,9 hPa 0,0 l/m O-NO 1,00 h 540 W/m 16,5 km/h (3 Bft)
30.08.2016 11:00 20,6 C 74 % 1020,7 hPa 0,0 l/m NO 1,00 h 670 W/m 18,4 km/h (3 Bft)
30.08.2016 12:00 21,7 C 67 % 1020,6 hPa 0,0 l/m O-NO 0,92 h 719 W/m 22,4 km/h (4 Bft)
30.08.2016 13:00 22,6 C 63 % 1020,2 hPa 0,0 l/m O-NO 0,67 h 594 W/m 21,6 km/h (4 Bft)
30.08.2016 14:00 23,3 C 58 % 1019,8 hPa 0,0 l/m O-NO 0,92 h 741 W/m 22,2 km/h (4 Bft)
30.08.2016 15:00 24,0 C 56 % 1019,3 hPa 0,0 l/m O-NO 0,75 h 595 W/m 22,2 km/h (4 Bft)
30.08.2016 16:00 23,3 C 58 % 1019,0 hPa 0,0 l/m O-NO 0,33 h 308 W/m 19,2 km/h (3 Bft)
30.08.2016 17:00 23,1 C 59 % 1018,5 hPa 0,0 l/m O-NO 0,75 h 380 W/m 16,9 km/h (3 Bft)
30.08.2016 18:00 22,8 C 60 % 1018,3 hPa 0,0 l/m O-NO 0,67 h 197 W/m 14,0 km/h (3 Bft)
30.08.2016 19:00 21,2 C 67 % 1018,4 hPa 0,0 l/m O 0,08 h 24 W/m 8,8 km/h (2 Bft)
30.08.2016 20:00 19,9 C 74 % 1018,8 hPa 0,0 l/m O 0,00 h 5 W/m 6,1 km/h (2 Bft)
30.08.2016 21:00 18,7 C 79 % 1019,1 hPa 0,0 l/m O-NO 0,00 h 0 W/m 5,5 km/h (1 Bft)
30.08.2016 22:00 18,0 C 80 % 1018,9 hPa 0,0 l/m O-NO 0,00 h 0 W/m 4,4 km/h (1 Bft)
30.08.2016 23:00 17,3 C 82 % 1018,8 hPa 0,0 l/m O-NO 0,00 h 0 W/m 5,2 km/h (1 Bft)
31.08.2016 00:00 16,9 C 84 % 1018,5 hPa 0,0 l/m O-NO 0,00 h 0 W/m 8,4 km/h (2 Bft)
31.08.2016 01:00 16,2 C 87 % 1018,3 hPa 0,0 l/m O-NO 0,00 h 0 W/m 6,4 km/h (2 Bft)
31.08.2016 02:00 15,2 C 90 % 1018,1 hPa 0,0 l/m O-NO 0,00 h 0 W/m 3,6 km/h (1 Bft)
31.08.2016 03:00 14,9 C 90 % 1017,8 hPa 0,0 l/m NO 0,00 h 0 W/m 4,7 km/h (1 Bft)
31.08.2016 04:00 14,3 C 92 % 1017,8 hPa 0,0 l/m NO 0,00 h 0 W/m 4,1 km/h (1 Bft)
31.08.2016 05:00 13,6 C 94 % 1018,0 hPa 0,0 l/m NO 0,00 h 0 W/m 2,0 km/h (1 Bft)
31.08.2016 06:00 13,0 C 95 % 1018,0 hPa 0,0 l/m NO 0,00 h 8 W/m 3,7 km/h (1 Bft)
31.08.2016 07:00 13,0 C 96 % 1018,2 hPa 0,0 l/m N 0,00 h 48 W/m 0,5 km/h (0 Bft)
31.08.2016 08:00 14,3 C 93 % 1018,2 hPa 0,0 l/m NO 0,75 h 182 W/m 4,3 km/h (1 Bft)
31.08.2016 09:00 15,9 C 89 % 1018,4 hPa 0,0 l/m O-NO 0,92 h 345 W/m 2,4 km/h (1 Bft)
31.08.2016 10:00 17,4 C 86 % 1018,5 hPa 0,0 l/m O-NO 0,67 h 391 W/m 3,1 km/h (1 Bft)
31.08.2016 11:00 19,3 C 81 % 1018,5 hPa 0,0 l/m O 0,58 h 552 W/m 8,4 km/h (2 Bft)
31.08.2016 12:00 21,0 C 78 % 1018,4 hPa 0,0 l/m SO 0,83 h 636 W/m 7,1 km/h (2 Bft)
31.08.2016 13:00 22,9 C 74 % 1017,9 hPa 0,0 l/m S-SO 1,00 h 791 W/m 7,4 km/h (2 Bft)
31.08.2016 14:00 24,4 C 70 % 1017,4 hPa 0,0 l/m S-SW 0,83 h 712 W/m 6,0 km/h (2 Bft)
31.08.2016 15:00 25,1 C 66 % 1016,9 hPa 0,0 l/m SO 0,75 h 533 W/m 4,9 km/h (1 Bft)
31.08.2016 16:00 25,6 C 63 % 1016,7 hPa 0,0 l/m N 1,00 h 563 W/m 2,9 km/h (1 Bft)
31.08.2016 17:00 25,5 C 63 % 1016,5 hPa 0,0 l/m S 1,00 h 418 W/m 4,3 km/h (1 Bft)
31.08.2016 18:00 24,7 C 68 % 1016,3 hPa 0,0 l/m N 0,83 h 195 W/m 2,7 km/h (1 Bft)
31.08.2016 19:00 22,3 C 80 % 1016,3 hPa 0,0 l/m N 0,00 h 23 W/m 0,5 km/h (0 Bft)
31.08.2016 20:00 20,6 C 85 % 1016,9 hPa 0,0 l/m N 0,00 h 0 W/m 0,0 km/h (0 Bft)
31.08.2016 21:00 20,4 C 85 % 1017,6 hPa 0,0 l/m O-NO 0,00 h 0 W/m 5,2 km/h (1 Bft)
31.08.2016 22:00 19,0 C 87 % 1017,8 hPa 0,0 l/m O-NO 0,00 h 0 W/m 1,0 km/h (0 Bft)
31.08.2016 23:00 17,4 C 91 % 1018,1 hPa 0,0 l/m O-NO 0,00 h 0 W/m 2,5 km/h (1 Bft)
01.09.2016 00:00 16,7 C 94 % 1018,5 hPa 0,0 l/m O-NO 0,00 h 0 W/m 0,5 km/h (0 Bft)
01.09.2016 01:00 16,4 C 96 % 1018,6 hPa 0,0 l/m N 0,00 h 0 W/m 0,4 km/h (0 Bft)
01.09.2016 02:00 16,0 C 97 % 1018,7 hPa 0,0 l/m N 0,00 h 0 W/m 0,0 km/h (0 Bft)
01.09.2016 03:00 15,7 C 97 % 1018,9 hPa 0,0 l/m N 0,00 h 0 W/m 0,4 km/h (0 Bft)
01.09.2016 04:00 15,3 C 97 % 1018,8 hPa 0,0 l/m N 0,00 h 0 W/m 0,0 km/h (0 Bft)
01.09.2016 05:00 15,0 C 98 % 1018,9 hPa 0,0 l/m N 0,00 h 0 W/m 0,1 km/h (0 Bft)
01.09.2016 06:00 15,2 C 98 % 1019,1 hPa 0,0 l/m N 0,00 h 6 W/m 0,0 km/h (0 Bft)
01.09.2016 07:00 15,7 C 97 % 1019,6 hPa 0,0 l/m N 0,00 h 32 W/m 0,0 km/h (0 Bft)
01.09.2016 08:00 16,6 C 97 % 1019,9 hPa 0,0 l/m N 0,00 h 82 W/m 0,4 km/h (0 Bft)
01.09.2016 09:00 18,9 C 91 % 1020,3 hPa 0,0 l/m N-NO 0,67 h 308 W/m 1,7 km/h (1 Bft)
01.09.2016 10:00 21,4 C 77 % 1020,5 hPa 0,0 l/m NO 1,00 h 524 W/m 4,7 km/h (1 Bft)
01.09.2016 11:00 22,8 C 65 % 1020,5 hPa 0,0 l/m N-NO 1,00 h 666 W/m 7,5 km/h (2 Bft)
01.09.2016 12:00 23,4 C 63 % 1020,2 hPa 0,0 l/m N 0,33 h 434 W/m 6,6 km/h (2 Bft)
01.09.2016 13:00 23,7 C 62 % 1019,8 hPa 0,0 l/m N-NW 0,50 h 512 W/m 9,5 km/h (2 Bft)
01.09.2016 14:00 23,7 C 62 % 1019,4 hPa 0,0 l/m N-NW 0,58 h 563 W/m 4,7 km/h (1 Bft)
01.09.2016 15:00 24,8 C 56 % 1019,0 hPa 0,0 l/m SW 0,83 h 606 W/m 8,1 km/h (2 Bft)
01.09.2016 16:00 24,4 C 56 % 1018,8 hPa 0,0 l/m W 0,58 h 428 W/m 6,8 km/h (2 Bft)
01.09.2016 17:00 24,0 C 61 % 1018,6 hPa 0,0 l/m NW 0,75 h 344 W/m 5,3 km/h (1 Bft)
01.09.2016 18:00 22,8 C 67 % 1018,4 hPa 0,0 l/m N 0,58 h 134 W/m 0,4 km/h (0 Bft)
01.09.2016 19:00 20,9 C 79 % 1018,5 hPa 0,0 l/m N 0,08 h 28 W/m 0,3 km/h (0 Bft)
01.09.2016 20:00 18,8 C 85 % 1019,1 hPa 0,0 l/m N 0,00 h 5 W/m 0,7 km/h (0 Bft)
01.09.2016 21:00 18,7 C 85 % 1019,6 hPa 0,0 l/m NW 0,00 h 0 W/m 1,5 km/h (1 Bft)
01.09.2016 22:00 18,6 C 83 % 1019,8 hPa 0,0 l/m NW 0,00 h 0 W/m 4,0 km/h (1 Bft)
01.09.2016 23:00 17,1 C 86 % 1019,8 hPa 0,0 l/m N 0,00 h 0 W/m 0,3 km/h (0 Bft)
02.09.2016 00:00 15,9 C 88 % 1019,8 hPa 0,0 l/m NW 0,00 h 0 W/m 0,8 km/h (0 Bft)
02.09.2016 01:00 15,0 C 91 % 1019,7 hPa 0,0 l/m N 0,00 h 0 W/m 0,0 km/h (0 Bft)
02.09.2016 02:00 14,2 C 92 % 1019,6 hPa 0,0 l/m N 0,00 h 0 W/m 0,0 km/h (0 Bft)
02.09.2016 03:00 14,0 C 92 % 1019,3 hPa 0,0 l/m N 0,00 h 0 W/m 0,0 km/h (0 Bft)
02.09.2016 04:00 13,4 C 93 % 1019,4 hPa 0,0 l/m N 0,00 h 0 W/m 0,0 km/h (0 Bft)
02.09.2016 05:00 12,8 C 94 % 1019,4 hPa 0,0 l/m N 0,00 h 0 W/m 0,0 km/h (0 Bft)
02.09.2016 06:00 12,3 C 95 % 1019,4 hPa 0,0 l/m N 0,00 h 7 W/m 0,0 km/h (0 Bft)
02.09.2016 07:00 12,5 C 96 % 1019,6 hPa 0,0 l/m N 0,00 h 45 W/m 0,0 km/h (0 Bft)
02.09.2016 08:00 15,1 C 90 % 1019,7 hPa 0,0 l/m N 0,83 h 200 W/m 0,0 km/h (0 Bft)
02.09.2016 09:00 18,0 C 78 % 1019,6 hPa 0,0 l/m N 1,00 h 324 W/m 0,0 km/h (0 Bft)
02.09.2016 10:00 20,0 C 74 % 1019,5 hPa 0,0 l/m NW 1,00 h 497 W/m 1,1 km/h (0 Bft)
02.09.2016 11:00 22,0 C 70 % 1019,1 hPa 0,0 l/m NW 1,00 h 646 W/m 3,7 km/h (1 Bft)
02.09.2016 12:00 23,8 C 61 % 1018,7 hPa 0,0 l/m NO 1,00 h 752 W/m 5,5 km/h (1 Bft)
02.09.2016 13:00 24,9 C 55 % 1018,2 hPa 0,0 l/m S 0,92 h 753 W/m 7,6 km/h (2 Bft)
02.09.2016 14:00 25,4 C 51 % 1017,7 hPa 0,0 l/m S-SW 0,83 h 682 W/m 7,8 km/h (2 Bft)
02.09.2016 15:00 24,8 C 52 % 1017,3 hPa 0,0 l/m W-SW 0,58 h 463 W/m 4,9 km/h (1 Bft)
02.09.2016 16:00 25,3 C 52 % 1017,0 hPa 0,0 l/m W 1,00 h 433 W/m 6,1 km/h (2 Bft)
02.09.2016 17:00 24,6 C 57 % 1016,6 hPa 0,0 l/m W 0,50 h 230 W/m 3,6 km/h (1 Bft)
02.09.2016 18:00 23,3 C 66 % 1016,5 hPa 0,0 l/m N 0,08 h 116 W/m 0,0 km/h (0 Bft)
02.09.2016 19:00 20,8 C 76 % 1016,6 hPa 0,0 l/m N 0,00 h 32 W/m 0,0 km/h (0 Bft)
02.09.2016 20:00 18,5 C 85 % 1017,0 hPa 0,0 l/m N 0,00 h 0 W/m 0,0 km/h (0 Bft)
02.09.2016 21:00 17,1 C 88 % 1017,4 hPa 0,0 l/m N 0,00 h 0 W/m 0,0 km/h (0 Bft)
02.09.2016 22:00 16,4 C 88 % 1017,8 hPa 0,0 l/m W 0,00 h 0 W/m 0,8 km/h (0 Bft)
02.09.2016 23:00 16,2 C 90 % 1018,1 hPa 0,0 l/m N 0,00 h 0 W/m 0,0 km/h (0 Bft)
03.09.2016 00:00 15,3 C 92 % 1018,2 hPa 0,0 l/m N 0,00 h 0 W/m 0,0 km/h (0 Bft)
03.09.2016 01:00 14,6 C 94 % 1017,9 hPa 0,0 l/m N 0,00 h 0 W/m 0,0 km/h (0 Bft)
03.09.2016 02:00 14,1 C 95 % 1017,9 hPa 0,0 l/m N 0,00 h 0 W/m 0,0 km/h (0 Bft)
03.09.2016 03:00 13,7 C 96 % 1017,7 hPa 0,0 l/m N 0,00 h 0 W/m 0,0 km/h (0 Bft)
03.09.2016 04:00 13,2 C 97 % 1017,9 hPa 0,0 l/m N 0,00 h 0 W/m 0,0 km/h (0 Bft)
03.09.2016 05:00 13,0 C 97 % 1017,9 hPa 0,0 l/m N 0,00 h 0 W/m 0,0 km/h (0 Bft)
03.09.2016 06:00 12,6 C 98 % 1017,6 hPa 0,0 l/m N 0,00 h 9 W/m 0,0 km/h (0 Bft)
03.09.2016 07:00 12,6 C 98 % 1017,7 hPa 0,0 l/m N 0,08 h 56 W/m 0,0 km/h (0 Bft)
03.09.2016 08:00 14,5 C 96 % 1017,9 hPa 0,0 l/m N 0,75 h 192 W/m 0,0 km/h (0 Bft)
03.09.2016 09:00 17,4 C 89 % 1018,4 hPa 0,0 l/m W 0,83 h 366 W/m 1,6 km/h (1 Bft)
03.09.2016 10:00 19,0 C 86 % 1018,6 hPa 0,0 l/m N 0,25 h 297 W/m 0,4 km/h (0 Bft)
03.09.2016 11:00 21,2 C 77 % 1018,5 hPa 0,0 l/m N 1,00 h 520 W/m 2,4 km/h (1 Bft)
03.09.2016 12:00 22,4 C 71 % 1018,2 hPa 0,0 l/m W-SW 0,67 h 508 W/m 6,3 km/h (2 Bft)
03.09.2016 13:00 23,2 C 67 % 1017,7 hPa 0,0 l/m SW 0,83 h 618 W/m 8,2 km/h (2 Bft)
03.09.2016 14:00 24,4 C 52 % 1017,2 hPa 0,0 l/m W 1,00 h 726 W/m 8,2 km/h (2 Bft)
03.09.2016 15:00 24,2 C 48 % 1016,8 hPa 0,0 l/m W 0,58 h 404 W/m 9,8 km/h (2 Bft)
03.09.2016 16:00 23,4 C 51 % 1016,6 hPa 0,0 l/m W 0,00 h 196 W/m 5,8 km/h (1 Bft)
03.09.2016 17:00 22,8 C 57 % 1016,3 hPa 0,0 l/m N 0,00 h 188 W/m 0,8 km/h (0 Bft)
03.09.2016 18:00 22,0 C 70 % 1016,0 hPa 0,0 l/m N 0,00 h 114 W/m 0,0 km/h (0 Bft)
03.09.2016 19:00 20,0 C 80 % 1015,7 hPa 0,0 l/m N 0,25 h 37 W/m 0,0 km/h (0 Bft)
03.09.2016 20:00 18,4 C 83 % 1015,9 hPa 0,0 l/m N 0,00 h 0 W/m 0,0 km/h (0 Bft)
03.09.2016 21:00 17,3 C 87 % 1016,2 hPa 0,0 l/m N 0,00 h 0 W/m 0,0 km/h (0 Bft)
03.09.2016 22:00 16,2 C 92 % 1016,3 hPa 0,0 l/m N 0,00 h 0 W/m 0,0 km/h (0 Bft)
03.09.2016 23:00 15,6 C 94 % 1016,1 hPa 0,0 l/m N 0,00 h 0 W/m 0,0 km/h (0 Bft)
04.09.2016 00:00 15,1 C 95 % 1015,9 hPa 0,0 l/m N 0,00 h 0 W/m 0,0 km/h (0 Bft)
04.09.2016 01:00 14,5 C 96 % 1015,6 hPa 0,0 l/m N 0,00 h 0 W/m 0,1 km/h (0 Bft)
04.09.2016 02:00 13,9 C 97 % 1015,4 hPa 0,0 l/m N 0,00 h 0 W/m 0,0 km/h (0 Bft)
04.09.2016 03:00 13,4 C 97 % 1015,2 hPa 0,0 l/m N 0,00 h 0 W/m 0,0 km/h (0 Bft)
04.09.2016 04:00 13,0 C 97 % 1015,2 hPa 0,0 l/m N 0,00 h 0 W/m 0,0 km/h (0 Bft)
04.09.2016 05:00 12,5 C 97 % 1015,2 hPa 0,0 l/m N 0,00 h 0 W/m 0,0 km/h (0 Bft)
04.09.2016 06:00 12,1 C 97 % 1015,3 hPa 0,0 l/m N 0,08 h 12 W/m 0,0 km/h (0 Bft)
04.09.2016 07:00 12,7 C 98 % 1015,1 hPa 0,0 l/m N 1,00 h 91 W/m 1,1 km/h (0 Bft)
04.09.2016 08:00 15,5 C 97 % 1014,8 hPa 0,0 l/m W-SW 0,00 h 124 W/m 5,5 km/h (1 Bft)
04.09.2016 09:00 17,6 C 94 % 1014,5 hPa 0,0 l/m S-SW 0,33 h 234 W/m 10,3 km/h (2 Bft)
04.09.2016 10:00 19,4 C 87 % 1014,8 hPa 0,0 l/m W-SW 0,67 h 411 W/m 13,7 km/h (3 Bft)
04.09.2016 11:00 20,8 C 77 % 1014,5 hPa 0,0 l/m W-SW 0,17 h 285 W/m 14,4 km/h (3 Bft)
04.09.2016 12:00 20,5 C 78 % 1014,4 hPa 0,0 l/m SW 0,00 h 218 W/m 16,1 km/h (3 Bft)
04.09.2016 13:00 21,2 C 76 % 1014,1 hPa 0,0 l/m SW 0,42 h 365 W/m 13,3 km/h (3 Bft)
04.09.2016 14:00 21,8 C 72 % 1013,3 hPa 0,0 l/m SW 0,08 h 300 W/m 14,6 km/h (3 Bft)
04.09.2016 15:00 21,5 C 73 % 1012,8 hPa 0,0 l/m SW 0,00 h 189 W/m 14,4 km/h (3 Bft)
04.09.2016 16:00 20,8 C 75 % 1013,1 hPa 0,0 l/m W-SW 0,00 h 98 W/m 15,2 km/h (3 Bft)
04.09.2016 17:00 19,8 C 75 % 1013,8 hPa 0,0 l/m W 0,00 h 51 W/m 18,0 km/h (3 Bft)
04.09.2016 18:00 18,4 C 73 % 1014,3 hPa 0,0 l/m W 0,00 h 41 W/m 22,9 km/h (4 Bft)
04.09.2016 19:00 17,0 C 78 % 1014,8 hPa 0,0 l/m W-SW 0,00 h 16 W/m 22,0 km/h (4 Bft)
04.09.2016 20:00 15,3 C 90 % 1015,4 hPa 0,8 l/m W-SW 0,00 h 0 W/m 19,6 km/h (3 Bft)
04.09.2016 21:00 14,9 C 94 % 1015,6 hPa 0,4 l/m W-SW 0,00 h 0 W/m 22,0 km/h (4 Bft)
04.09.2016 22:00 14,9 C 95 % 1015,3 hPa 0,0 l/m W-SW 0,00 h 0 W/m 21,4 km/h (4 Bft)
04.09.2016 23:00 15,0 C 95 % 1015,5 hPa 0,4 l/m W-SW 0,00 h 0 W/m 20,2 km/h (4 Bft)
Min-Datum _ 02.09.16 03.09.16 04.09.16 - - - - 29.08.16
_ Min-Zeit 06:55 15:00 15:40 - - - - 00:00
Minimum _ 12,1 C 43 % 1012,7 hPa - - - - 0,0 km/h (0 Bft)
Max-Datum _ 31.08.16 29.08.16 30.08.16 29.08.16 - 02.09.16 03.09.16 30.08.16
_ Max-Zeit 16:55 23:35 09:50 15:35 - 16:15 14:55 12:00
Maximum _ 26,2 C 99 % 1021,0 hPa 4,6 l/m - 0,17 h 951 W/m 30,6 km/h
O-NO (5 Bft)
Durchschnitt _ 18,4 C 83 % 1017,6 hPa #7,4 l/m SW #43:20 h 288 W/m 5,2 km/h (1 Bft)